owner,sensor,date,latitude,longitude,vertical_datum,sea_water_practical_salinity,qcFlag 
LUMCON,ioos:station:LUMCON:102:1,2011-01-01T01:00:00Z,29.1870,-90.6093,-9999.0,29.21,1111122 
LUMCON,ioos:station:LUMCON:102:1,2011-01-01T02:00:00Z,29.1870,-90.6093,-9999.0,29.2,1111122 
LUMCON,ioos:station:LUMCON:102:1,2011-01-01T03:00:00Z,29.1870,-90.6093,-9999.0,29.31,1111122 
LUMCON,ioos:station:LUMCON:102:1,2011-01-01T04:00:00Z,29.1870,-90.6093,-9999.0,29.44,1111122 
LUMCON,ioos:station:LUMCON:102:1,2011-01-01T05:00:00Z,29.1870,-90.6093,-9999.0,29.57,1111122 
LUMCON,ioos:station:LUMCON:102:1,2011-01-01T06:00:00Z,29.1870,-90.6093,-9999.0,29.48,1111122 
LUMCON,ioos:station:LUMCON:102:1,2011-01-01T07:00:00Z,29.1870,-90.6093,-9999.0,29.47,1111122 
LUMCON,ioos:station:LUMCON:102:1,2011-01-01T08:00:00Z,29.1870,-90.6093,-9999.0,28.61,1111122 
LUMCON,ioos:station:LUMCON:102:1,2011-01-01T09:00:00Z,29.1870,-90.6093,-9999.0,27.33,1111122 
LUMCON,ioos:station:LUMCON:102:1,2011-01-01T10:00:00Z,29.1870,-90.6093,-9999.0,26.37,1111122 
LUMCON,ioos:station:LUMCON:102:1,2011-01-01T11:00:00Z,29.1870,-90.6093,-9999.0,25.67,1111122 
LUMCON,ioos:station:LUMCON:102:1,2011-01-01T12:00:00Z,29.1870,-90.6093,-9999.0,24.98,1111122 
LUMCON,ioos:station:LUMCON:102:1,2011-01-01T13:00:00Z,29.1870,-90.6093,-9999.0,24.51,1111122 
LUMCON,ioos:station:LUMCON:102:1,2011-01-01T14:00:00Z,29.1870,-90.6093,-9999.0,24.09,1111122 
LUMCON,ioos:station:LUMCON:102:1,2011-01-01T15:00:00Z,29.1870,-90.6093,-9999.0,23.8,1111122 
LUMCON,ioos:station:LUMCON:102:1,2011-01-01T16:00:00Z,29.1870,-90.6093,-9999.0,24.14,1111122 
LUMCON,ioos:station:LUMCON:102:1,2011-01-01T17:00:00Z,29.1870,-90.6093,-9999.0,24.34,1111122 
LUMCON,ioos:station:LUMCON:102:1,2011-01-01T18:00:00Z,29.1870,-90.6093,-9999.0,24.81,1111122 
LUMCON,ioos:station:LUMCON:102:1,2011-01-01T19:00:00Z,29.1870,-90.6093,-9999.0,25.36,1111122 
LUMCON,ioos:station:LUMCON:102:1,2011-01-01T20:00:00Z,29.1870,-90.6093,-9999.0,25.95,1111122 
LUMCON,ioos:station:LUMCON:102:1,2011-01-01T21:00:00Z,29.1870,-90.6093,-9999.0,26.28,1111122 
LUMCON,ioos:station:LUMCON:102:1,2011-01-01T22:00:00Z,29.1870,-90.6093,-9999.0,26.16,1111122 
LUMCON,ioos:station:LUMCON:102:1,2011-01-01T23:00:00Z,29.1870,-90.6093,-9999.0,26.0,1111122 
LUMCON,ioos:station:LUMCON:102:1,2011-01-01T24:00:00Z,29.1870,-90.6093,-9999.0,26.15,1111122 
LUMCON,ioos:station:LUMCON:102:1,2011-01-02T01:00:00Z,29.1870,-90.6093,-9999.0,26.5,1111122 
LUMCON,ioos:station:LUMCON:102:1,2011-01-02T02:00:00Z,29.1870,-90.6093,-9999.0,26.68,1111122 
LUMCON,ioos:station:LUMCON:102:1,2011-01-02T03:00:00Z,29.1870,-90.6093,-9999.0,26.54,1111122 
LUMCON,ioos:station:LUMCON:102:1,2011-01-02T04:00:00Z,29.1870,-90.6093,-9999.0,26.04,1111122 
LUMCON,ioos:station:LUMCON:102:1,2011-01-02T05:00:00Z,29.1870,-90.6093,-9999.0,24.74,1111122 
LUMCON,ioos:station:LUMCON:102:1,2011-01-02T06:00:00Z,29.1870,-90.6093,-9999.0,24.49,1111122 
LUMCON,ioos:station:LUMCON:102:1,2011-01-02T07:00:00Z,29.1870,-90.6093,-9999.0,24.41,1111122 
LUMCON,ioos:station:LUMCON:102:1,2011-01-02T08:00:00Z,29.1870,-90.6093,-9999.0,24.42,1111122 
LUMCON,ioos:station:LUMCON:102:1,2011-01-02T09:00:00Z,29.1870,-90.6093,-9999.0,23.89,1111122 
LUMCON,ioos:station:LUMCON:102:1,2011-01-02T10:00:00Z,29.1870,-90.6093,-9999.0,22.77,1111122 
LUMCON,ioos:station:LUMCON:102:1,2011-01-02T11:00:00Z,29.1870,-90.6093,-9999.0,22.36,1111122 
LUMCON,ioos:station:LUMCON:102:1,2011-01-02T12:00:00Z,29.1870,-90.6093,-9999.0,21.41,1111122 
LUMCON,ioos:station:LUMCON:102:1,2011-01-02T13:00:00Z,29.1870,-90.6093,-9999.0,20.51,1111122 
LUMCON,ioos:station:LUMCON:102:1,2011-01-02T14:00:00Z,29.1870,-90.6093,-9999.0,20.02,1111122 
LUMCON,ioos:station:LUMCON:102:1,2011-01-02T15:00:00Z,29.1870,-90.6093,-9999.0,19.57,1111122 
LUMCON,ioos:station:LUMCON:102:1,2011-01-02T16:00:00Z,29.1870,-90.6093,-9999.0,19.56,1111122 
LUMCON,ioos:station:LUMCON:102:1,2011-01-02T17:00:00Z,29.1870,-90.6093,-9999.0,20.33,1111122 
LUMCON,ioos:station:LUMCON:102:1,2011-01-02T18:00:00Z,29.1870,-90.6093,-9999.0,20.81,1111122 
LUMCON,ioos:station:LUMCON:102:1,2011-01-02T19:00:00Z,29.1870,-90.6093,-9999.0,21.36,1111122 
LUMCON,ioos:station:LUMCON:102:1,2011-01-02T20:00:00Z,29.1870,-90.6093,-9999.0,21.94,1111122 
LUMCON,ioos:station:LUMCON:102:1,2011-01-02T21:00:00Z,29.1870,-90.6093,-9999.0,23.94,1111122 
LUMCON,ioos:station:LUMCON:102:1,2011-01-02T22:00:00Z,29.1870,-90.6093,-9999.0,24.13,1111122 
LUMCON,ioos:station:LUMCON:102:1,2011-01-02T23:00:00Z,29.1870,-90.6093,-9999.0,24.5,1111122 
LUMCON,ioos:station:LUMCON:102:1,2011-01-02T24:00:00Z,29.1870,-90.6093,-9999.0,25.13,1111122 
LUMCON,ioos:station:LUMCON:102:1,2011-01-03T01:00:00Z,29.1870,-90.6093,-9999.0,25.58,1111122 
LUMCON,ioos:station:LUMCON:102:1,2011-01-03T02:00:00Z,29.1870,-90.6093,-9999.0,25.75,1111122 
LUMCON,ioos:station:LUMCON:102:1,2011-01-03T03:00:00Z,29.1870,-90.6093,-9999.0,25.83,1111122 
LUMCON,ioos:station:LUMCON:102:1,2011-01-03T04:00:00Z,29.1870,-90.6093,-9999.0,26.0,1111122 
LUMCON,ioos:station:LUMCON:102:1,2011-01-03T05:00:00Z,29.1870,-90.6093,-9999.0,26.07,1111122 
LUMCON,ioos:station:LUMCON:102:1,2011-01-03T06:00:00Z,29.1870,-90.6093,-9999.0,26.19,1111122 
LUMCON,ioos:station:LUMCON:102:1,2011-01-03T07:00:00Z,29.1870,-90.6093,-9999.0,26.48,1111122 
LUMCON,ioos:station:LUMCON:102:1,2011-01-03T08:00:00Z,29.1870,-90.6093,-9999.0,26.6,1111122 
LUMCON,ioos:station:LUMCON:102:1,2011-01-03T09:00:00Z,29.1870,-90.6093,-9999.0,25.99,1111122 
LUMCON,ioos:station:LUMCON:102:1,2011-01-03T10:00:00Z,29.1870,-90.6093,-9999.0,25.19,1111122 
LUMCON,ioos:station:LUMCON:102:1,2011-01-03T11:00:00Z,29.1870,-90.6093,-9999.0,22.18,1111122 
LUMCON,ioos:station:LUMCON:102:1,2011-01-03T12:00:00Z,29.1870,-90.6093,-9999.0,20.45,1111122 
LUMCON,ioos:station:LUMCON:102:1,2011-01-03T13:00:00Z,29.1870,-90.6093,-9999.0,19.95,1111122 
LUMCON,ioos:station:LUMCON:102:1,2011-01-03T14:00:00Z,29.1870,-90.6093,-9999.0,19.89,1111122 
LUMCON,ioos:station:LUMCON:102:1,2011-01-03T15:00:00Z,29.1870,-90.6093,-9999.0,19.59,1111122 
LUMCON,ioos:station:LUMCON:102:1,2011-01-03T16:00:00Z,29.1870,-90.6093,-9999.0,19.9,1111122 
LUMCON,ioos:station:LUMCON:102:1,2011-01-03T17:00:00Z,29.1870,-90.6093,-9999.0,20.21,1111122 
LUMCON,ioos:station:LUMCON:102:1,2011-01-03T18:00:00Z,29.1870,-90.6093,-9999.0,20.21,1111122 
LUMCON,ioos:station:LUMCON:102:1,2011-01-03T19:00:00Z,29.1870,-90.6093,-9999.0,20.33,1111122 
LUMCON,ioos:station:LUMCON:102:1,2011-01-03T20:00:00Z,29.1870,-90.6093,-9999.0,20.91,1111122 
LUMCON,ioos:station:LUMCON:102:1,2011-01-03T21:00:00Z,29.1870,-90.6093,-9999.0,20.82,1111122 
LUMCON,ioos:station:LUMCON:102:1,2011-01-03T22:00:00Z,29.1870,-90.6093,-9999.0,23.19,1111122 
LUMCON,ioos:station:LUMCON:102:1,2011-01-03T23:00:00Z,29.1870,-90.6093,-9999.0,24.95,1111122 
LUMCON,ioos:station:LUMCON:102:1,2011-01-03T24:00:00Z,29.1870,-90.6093,-9999.0,27.44,1111122 
LUMCON,ioos:station:LUMCON:102:1,2011-01-04T01:00:00Z,29.1870,-90.6093,-9999.0,27.98,1111122 
LUMCON,ioos:station:LUMCON:102:1,2011-01-04T02:00:00Z,29.1870,-90.6093,-9999.0,28.02,1111122 
LUMCON,ioos:station:LUMCON:102:1,2011-01-04T03:00:00Z,29.1870,-90.6093,-9999.0,28.05,1111122 
LUMCON,ioos:station:LUMCON:102:1,2011-01-04T04:00:00Z,29.1870,-90.6093,-9999.0,28.13,1111122 
LUMCON,ioos:station:LUMCON:102:1,2011-01-04T05:00:00Z,29.1870,-90.6093,-9999.0,28.17,1111122 
LUMCON,ioos:station:LUMCON:102:1,2011-01-04T06:00:00Z,29.1870,-90.6093,-9999.0,28.12,1111122 
LUMCON,ioos:station:LUMCON:102:1,2011-01-04T07:00:00Z,29.1870,-90.6093,-9999.0,28.29,1111122 
LUMCON,ioos:station:LUMCON:102:1,2011-01-04T08:00:00Z,29.1870,-90.6093,-9999.0,28.3,1111122 
LUMCON,ioos:station:LUMCON:102:1,2011-01-04T09:00:00Z,29.1870,-90.6093,-9999.0,28.34,1111122 
LUMCON,ioos:station:LUMCON:102:1,2011-01-04T10:00:00Z,29.1870,-90.6093,-9999.0,26.19,1111122 
LUMCON,ioos:station:LUMCON:102:1,2011-01-04T11:00:00Z,29.1870,-90.6093,-9999.0,24.02,1111122 
LUMCON,ioos:station:LUMCON:102:1,2011-01-04T12:00:00Z,29.1870,-90.6093,-9999.0,23.43,1111122 
LUMCON,ioos:station:LUMCON:102:1,2011-01-04T13:00:00Z,29.1870,-90.6093,-9999.0,23.39,1111122 
LUMCON,ioos:station:LUMCON:102:1,2011-01-04T14:00:00Z,29.1870,-90.6093,-9999.0,22.86,1111122 
LUMCON,ioos:station:LUMCON:102:1,2011-01-04T15:00:00Z,29.1870,-90.6093,-9999.0,22.53,1111122 
LUMCON,ioos:station:LUMCON:102:1,2011-01-04T16:00:00Z,29.1870,-90.6093,-9999.0,22.36,1111122 
LUMCON,ioos:station:LUMCON:102:1,2011-01-04T17:00:00Z,29.1870,-90.6093,-9999.0,22.13,1111122 
LUMCON,ioos:station:LUMCON:102:1,2011-01-04T18:00:00Z,29.1870,-90.6093,-9999.0,21.89,1111122 
LUMCON,ioos:station:LUMCON:102:1,2011-01-04T19:00:00Z,29.1870,-90.6093,-9999.0,20.92,1111122 
LUMCON,ioos:station:LUMCON:102:1,2011-01-04T20:00:00Z,29.1870,-90.6093,-9999.0,21.57,1111122 
LUMCON,ioos:station:LUMCON:102:1,2011-01-04T21:00:00Z,29.1870,-90.6093,-9999.0,22.89,1111122 
LUMCON,ioos:station:LUMCON:102:1,2011-01-04T22:00:00Z,29.1870,-90.6093,-9999.0,24.41,1111122 
LUMCON,ioos:station:LUMCON:102:1,2011-01-04T23:00:00Z,29.1870,-90.6093,-9999.0,25.7,1111122 
LUMCON,ioos:station:LUMCON:102:1,2011-01-04T24:00:00Z,29.1870,-90.6093,-9999.0,26.73,1111122 
LUMCON,ioos:station:LUMCON:102:1,2011-01-05T01:00:00Z,29.1870,-90.6093,-9999.0,27.89,1111122 
LUMCON,ioos:station:LUMCON:102:1,2011-01-05T02:00:00Z,29.1870,-90.6093,-9999.0,28.37,1111122 
LUMCON,ioos:station:LUMCON:102:1,2011-01-05T03:00:00Z,29.1870,-90.6093,-9999.0,28.84,1111122 
LUMCON,ioos:station:LUMCON:102:1,2011-01-05T04:00:00Z,29.1870,-90.6093,-9999.0,29.36,1111122 
LUMCON,ioos:station:LUMCON:102:1,2011-01-05T05:00:00Z,29.1870,-90.6093,-9999.0,29.57,1111122 
LUMCON,ioos:station:LUMCON:102:1,2011-01-05T06:00:00Z,29.1870,-90.6093,-9999.0,29.33,1111122 
LUMCON,ioos:station:LUMCON:102:1,2011-01-05T07:00:00Z,29.1870,-90.6093,-9999.0,28.96,1111122 
LUMCON,ioos:station:LUMCON:102:1,2011-01-05T08:00:00Z,29.1870,-90.6093,-9999.0,28.6,1111122 
LUMCON,ioos:station:LUMCON:102:1,2011-01-05T09:00:00Z,29.1870,-90.6093,-9999.0,28.39,1111122 
LUMCON,ioos:station:LUMCON:102:1,2011-01-05T10:00:00Z,29.1870,-90.6093,-9999.0,27.59,1111122 
LUMCON,ioos:station:LUMCON:102:1,2011-01-05T11:00:00Z,29.1870,-90.6093,-9999.0,25.89,1111122 
LUMCON,ioos:station:LUMCON:102:1,2011-01-05T12:00:00Z,29.1870,-90.6093,-9999.0,23.83,1111122 
LUMCON,ioos:station:LUMCON:102:1,2011-01-05T13:00:00Z,29.1870,-90.6093,-9999.0,22.43,1111122 
LUMCON,ioos:station:LUMCON:102:1,2011-01-05T14:00:00Z,29.1870,-90.6093,-9999.0,21.65,1111122 
LUMCON,ioos:station:LUMCON:102:1,2011-01-05T15:00:00Z,29.1870,-90.6093,-9999.0,21.84,1111122 
LUMCON,ioos:station:LUMCON:102:1,2011-01-05T16:00:00Z,29.1870,-90.6093,-9999.0,21.74,1111122 
LUMCON,ioos:station:LUMCON:102:1,2011-01-05T17:00:00Z,29.1870,-90.6093,-9999.0,21.84,1111122 
LUMCON,ioos:station:LUMCON:102:1,2011-01-05T18:00:00Z,29.1870,-90.6093,-9999.0,21.43,1111122 
LUMCON,ioos:station:LUMCON:102:1,2011-01-05T19:00:00Z,29.1870,-90.6093,-9999.0,22.25,1111122 
LUMCON,ioos:station:LUMCON:102:1,2011-01-05T20:00:00Z,29.1870,-90.6093,-9999.0,23.42,1111122 
LUMCON,ioos:station:LUMCON:102:1,2011-01-05T21:00:00Z,29.1870,-90.6093,-9999.0,23.59,1111122 
LUMCON,ioos:station:LUMCON:102:1,2011-01-05T22:00:00Z,29.1870,-90.6093,-9999.0,23.99,1111122 
LUMCON,ioos:station:LUMCON:102:1,2011-01-05T23:00:00Z,29.1870,-90.6093,-9999.0,24.64,1111122 
LUMCON,ioos:station:LUMCON:102:1,2011-01-05T24:00:00Z,29.1870,-90.6093,-9999.0,25.42,1111122 
LUMCON,ioos:station:LUMCON:102:1,2011-01-06T01:00:00Z,29.1870,-90.6093,-9999.0,26.17,1111122 
LUMCON,ioos:station:LUMCON:102:1,2011-01-06T02:00:00Z,29.1870,-90.6093,-9999.0,26.87,1111122 
LUMCON,ioos:station:LUMCON:102:1,2011-01-06T03:00:00Z,29.1870,-90.6093,-9999.0,27.75,1111122 
LUMCON,ioos:station:LUMCON:102:1,2011-01-06T04:00:00Z,29.1870,-90.6093,-9999.0,28.09,1111122 
LUMCON,ioos:station:LUMCON:102:1,2011-01-06T05:00:00Z,29.1870,-90.6093,-9999.0,28.05,1111122 
LUMCON,ioos:station:LUMCON:102:1,2011-01-06T06:00:00Z,29.1870,-90.6093,-9999.0,28.17,1111122 
LUMCON,ioos:station:LUMCON:102:1,2011-01-06T07:00:00Z,29.1870,-90.6093,-9999.0,27.27,1111122 
LUMCON,ioos:station:LUMCON:102:1,2011-01-06T08:00:00Z,29.1870,-90.6093,-9999.0,26.49,1111122 
LUMCON,ioos:station:LUMCON:102:1,2011-01-06T09:00:00Z,29.1870,-90.6093,-9999.0,25.92,1111122 
LUMCON,ioos:station:LUMCON:102:1,2011-01-06T10:00:00Z,29.1870,-90.6093,-9999.0,25.47,1111122 
LUMCON,ioos:station:LUMCON:102:1,2011-01-06T11:00:00Z,29.1870,-90.6093,-9999.0,24.85,1111122 
LUMCON,ioos:station:LUMCON:102:1,2011-01-06T12:00:00Z,29.1870,-90.6093,-9999.0,23.08,1111122 
LUMCON,ioos:station:LUMCON:102:1,2011-01-06T13:00:00Z,29.1870,-90.6093,-9999.0,22.6,1111122 
LUMCON,ioos:station:LUMCON:102:1,2011-01-06T14:00:00Z,29.1870,-90.6093,-9999.0,21.95,1111122 
LUMCON,ioos:station:LUMCON:102:1,2011-01-06T15:00:00Z,29.1870,-90.6093,-9999.0,21.15,1111122 
LUMCON,ioos:station:LUMCON:102:1,2011-01-06T16:00:00Z,29.1870,-90.6093,-9999.0,21.05,1111122 
LUMCON,ioos:station:LUMCON:102:1,2011-01-06T17:00:00Z,29.1870,-90.6093,-9999.0,21.21,1111122 
LUMCON,ioos:station:LUMCON:102:1,2011-01-06T18:00:00Z,29.1870,-90.6093,-9999.0,20.75,1111122 
LUMCON,ioos:station:LUMCON:102:1,2011-01-06T19:00:00Z,29.1870,-90.6093,-9999.0,16.9,1111122 
LUMCON,ioos:station:LUMCON:102:1,2011-01-06T20:00:00Z,29.1870,-90.6093,-9999.0,19.12,1111122 
LUMCON,ioos:station:LUMCON:102:1,2011-01-06T21:00:00Z,29.1870,-90.6093,-9999.0,20.77,1111122 
LUMCON,ioos:station:LUMCON:102:1,2011-01-06T22:00:00Z,29.1870,-90.6093,-9999.0,22.95,1111122 
LUMCON,ioos:station:LUMCON:102:1,2011-01-06T23:00:00Z,29.1870,-90.6093,-9999.0,24.06,1111122 
LUMCON,ioos:station:LUMCON:102:1,2011-01-06T24:00:00Z,29.1870,-90.6093,-9999.0,24.38,1111122 
LUMCON,ioos:station:LUMCON:102:1,2011-01-07T01:00:00Z,29.1870,-90.6093,-9999.0,24.56,1111122 
LUMCON,ioos:station:LUMCON:102:1,2011-01-07T02:00:00Z,29.1870,-90.6093,-9999.0,24.51,1111122 
LUMCON,ioos:station:LUMCON:102:1,2011-01-07T03:00:00Z,29.1870,-90.6093,-9999.0,24.55,1111122 
LUMCON,ioos:station:LUMCON:102:1,2011-01-07T04:00:00Z,29.1870,-90.6093,-9999.0,24.82,1111122 
LUMCON,ioos:station:LUMCON:102:1,2011-01-07T05:00:00Z,29.1870,-90.6093,-9999.0,24.99,1111122 
LUMCON,ioos:station:LUMCON:102:1,2011-01-07T06:00:00Z,29.1870,-90.6093,-9999.0,25.1,1111122 
LUMCON,ioos:station:LUMCON:102:1,2011-01-07T07:00:00Z,29.1870,-90.6093,-9999.0,25.39,1111122 
LUMCON,ioos:station:LUMCON:102:1,2011-01-07T08:00:00Z,29.1870,-90.6093,-9999.0,25.36,1111122 
LUMCON,ioos:station:LUMCON:102:1,2011-01-07T09:00:00Z,29.1870,-90.6093,-9999.0,24.96,1111122 
LUMCON,ioos:station:LUMCON:102:1,2011-01-07T10:00:00Z,29.1870,-90.6093,-9999.0,24.5,1111122 
LUMCON,ioos:station:LUMCON:102:1,2011-01-07T11:00:00Z,29.1870,-90.6093,-9999.0,22.31,1111122 
LUMCON,ioos:station:LUMCON:102:1,2011-01-07T12:00:00Z,29.1870,-90.6093,-9999.0,22.39,1111122 
LUMCON,ioos:station:LUMCON:102:1,2011-01-07T13:00:00Z,29.1870,-90.6093,-9999.0,21.34,1111122 
LUMCON,ioos:station:LUMCON:102:1,2011-01-07T14:00:00Z,29.1870,-90.6093,-9999.0,21.52,1111122 
LUMCON,ioos:station:LUMCON:102:1,2011-01-07T15:00:00Z,29.1870,-90.6093,-9999.0,21.68,1111122 
LUMCON,ioos:station:LUMCON:102:1,2011-01-07T16:00:00Z,29.1870,-90.6093,-9999.0,20.48,1111122 
LUMCON,ioos:station:LUMCON:102:1,2011-01-07T17:00:00Z,29.1870,-90.6093,-9999.0,18.04,1111122 
LUMCON,ioos:station:LUMCON:102:1,2011-01-07T18:00:00Z,29.1870,-90.6093,-9999.0,17.35,1111122 
LUMCON,ioos:station:LUMCON:102:1,2011-01-07T19:00:00Z,29.1870,-90.6093,-9999.0,20.33,1111122 
LUMCON,ioos:station:LUMCON:102:1,2011-01-07T20:00:00Z,29.1870,-90.6093,-9999.0,22.69,1111122 
LUMCON,ioos:station:LUMCON:102:1,2011-01-07T21:00:00Z,29.1870,-90.6093,-9999.0,23.58,1111122 
LUMCON,ioos:station:LUMCON:102:1,2011-01-07T22:00:00Z,29.1870,-90.6093,-9999.0,24.16,1111122 
LUMCON,ioos:station:LUMCON:102:1,2011-01-07T23:00:00Z,29.1870,-90.6093,-9999.0,24.54,1111122 
LUMCON,ioos:station:LUMCON:102:1,2011-01-07T24:00:00Z,29.1870,-90.6093,-9999.0,24.47,1111122 
LUMCON,ioos:station:LUMCON:102:1,2011-01-08T01:00:00Z,29.1870,-90.6093,-9999.0,24.6,1111122 
LUMCON,ioos:station:LUMCON:102:1,2011-01-08T02:00:00Z,29.1870,-90.6093,-9999.0,24.87,1111122 
LUMCON,ioos:station:LUMCON:102:1,2011-01-08T03:00:00Z,29.1870,-90.6093,-9999.0,25.41,1111122 
LUMCON,ioos:station:LUMCON:102:1,2011-01-08T04:00:00Z,29.1870,-90.6093,-9999.0,25.88,1111122 
LUMCON,ioos:station:LUMCON:102:1,2011-01-08T05:00:00Z,29.1870,-90.6093,-9999.0,26.27,1111122 
LUMCON,ioos:station:LUMCON:102:1,2011-01-08T06:00:00Z,29.1870,-90.6093,-9999.0,26.29,1111122 
LUMCON,ioos:station:LUMCON:102:1,2011-01-08T07:00:00Z,29.1870,-90.6093,-9999.0,26.05,1111122 
LUMCON,ioos:station:LUMCON:102:1,2011-01-08T08:00:00Z,29.1870,-90.6093,-9999.0,26.05,1111122 
LUMCON,ioos:station:LUMCON:102:1,2011-01-08T09:00:00Z,29.1870,-90.6093,-9999.0,26.07,1111122 
LUMCON,ioos:station:LUMCON:102:1,2011-01-08T10:00:00Z,29.1870,-90.6093,-9999.0,26.06,1111122 
LUMCON,ioos:station:LUMCON:102:1,2011-01-08T11:00:00Z,29.1870,-90.6093,-9999.0,25.78,1111122 
LUMCON,ioos:station:LUMCON:102:1,2011-01-08T12:00:00Z,29.1870,-90.6093,-9999.0,23.21,1111122 
LUMCON,ioos:station:LUMCON:102:1,2011-01-08T13:00:00Z,29.1870,-90.6093,-9999.0,22.08,1111122 
LUMCON,ioos:station:LUMCON:102:1,2011-01-08T14:00:00Z,29.1870,-90.6093,-9999.0,23.16,1111122 
LUMCON,ioos:station:LUMCON:102:1,2011-01-08T15:00:00Z,29.1870,-90.6093,-9999.0,21.58,1111122 
LUMCON,ioos:station:LUMCON:102:1,2011-01-08T16:00:00Z,29.1870,-90.6093,-9999.0,20.19,1111122 
LUMCON,ioos:station:LUMCON:102:1,2011-01-08T17:00:00Z,29.1870,-90.6093,-9999.0,19.94,1111122 
LUMCON,ioos:station:LUMCON:102:1,2011-01-08T18:00:00Z,29.1870,-90.6093,-9999.0,20.42,1111122 
LUMCON,ioos:station:LUMCON:102:1,2011-01-08T19:00:00Z,29.1870,-90.6093,-9999.0,21.39,1111122 
LUMCON,ioos:station:LUMCON:102:1,2011-01-08T20:00:00Z,29.1870,-90.6093,-9999.0,20.09,1111122 
LUMCON,ioos:station:LUMCON:102:1,2011-01-08T21:00:00Z,29.1870,-90.6093,-9999.0,20.36,1111122 
LUMCON,ioos:station:LUMCON:102:1,2011-01-08T22:00:00Z,29.1870,-90.6093,-9999.0,22.13,1111122 
LUMCON,ioos:station:LUMCON:102:1,2011-01-08T23:00:00Z,29.1870,-90.6093,-9999.0,21.62,1111122 
LUMCON,ioos:station:LUMCON:102:1,2011-01-08T24:00:00Z,29.1870,-90.6093,-9999.0,22.32,1111122 
LUMCON,ioos:station:LUMCON:102:1,2011-01-09T01:00:00Z,29.1870,-90.6093,-9999.0,22.97,1111122 
LUMCON,ioos:station:LUMCON:102:1,2011-01-09T02:00:00Z,29.1870,-90.6093,-9999.0,23.65,1111122 
LUMCON,ioos:station:LUMCON:102:1,2011-01-09T03:00:00Z,29.1870,-90.6093,-9999.0,23.96,1111122 
LUMCON,ioos:station:LUMCON:102:1,2011-01-09T04:00:00Z,29.1870,-90.6093,-9999.0,23.8,1111122 
LUMCON,ioos:station:LUMCON:102:1,2011-01-09T05:00:00Z,29.1870,-90.6093,-9999.0,22.59,1111122 
LUMCON,ioos:station:LUMCON:102:1,2011-01-09T06:00:00Z,29.1870,-90.6093,-9999.0,23.02,1111122 
LUMCON,ioos:station:LUMCON:102:1,2011-01-09T07:00:00Z,29.1870,-90.6093,-9999.0,23.29,1111122 
LUMCON,ioos:station:LUMCON:102:1,2011-01-09T08:00:00Z,29.1870,-90.6093,-9999.0,23.08,1111122 
LUMCON,ioos:station:LUMCON:102:1,2011-01-09T09:00:00Z,29.1870,-90.6093,-9999.0,23.41,1111122 
LUMCON,ioos:station:LUMCON:102:1,2011-01-09T10:00:00Z,29.1870,-90.6093,-9999.0,23.55,1111122 
LUMCON,ioos:station:LUMCON:102:1,2011-01-09T11:00:00Z,29.1870,-90.6093,-9999.0,23.32,1111122 
LUMCON,ioos:station:LUMCON:102:1,2011-01-09T12:00:00Z,29.1870,-90.6093,-9999.0,22.87,1111122 
LUMCON,ioos:station:LUMCON:102:1,2011-01-09T13:00:00Z,29.1870,-90.6093,-9999.0,23.09,1111122 
LUMCON,ioos:station:LUMCON:102:1,2011-01-09T14:00:00Z,29.1870,-90.6093,-9999.0,22.58,1111122 
LUMCON,ioos:station:LUMCON:102:1,2011-01-09T15:00:00Z,29.1870,-90.6093,-9999.0,23.05,1111122 
LUMCON,ioos:station:LUMCON:102:1,2011-01-09T16:00:00Z,29.1870,-90.6093,-9999.0,22.76,1111122 
LUMCON,ioos:station:LUMCON:102:1,2011-01-09T17:00:00Z,29.1870,-90.6093,-9999.0,22.62,1111122 
LUMCON,ioos:station:LUMCON:102:1,2011-01-09T18:00:00Z,29.1870,-90.6093,-9999.0,22.99,1111122 
LUMCON,ioos:station:LUMCON:102:1,2011-01-09T19:00:00Z,29.1870,-90.6093,-9999.0,23.68,1111122 
LUMCON,ioos:station:LUMCON:102:1,2011-01-09T20:00:00Z,29.1870,-90.6093,-9999.0,24.21,1111122 
LUMCON,ioos:station:LUMCON:102:1,2011-01-09T21:00:00Z,29.1870,-90.6093,-9999.0,24.39,1111122 
LUMCON,ioos:station:LUMCON:102:1,2011-01-09T22:00:00Z,29.1870,-90.6093,-9999.0,24.69,1111122 
LUMCON,ioos:station:LUMCON:102:1,2011-01-09T23:00:00Z,29.1870,-90.6093,-9999.0,24.89,1111122 
LUMCON,ioos:station:LUMCON:102:1,2011-01-09T24:00:00Z,29.1870,-90.6093,-9999.0,24.81,1111122 
LUMCON,ioos:station:LUMCON:102:1,2011-01-10T01:00:00Z,29.1870,-90.6093,-9999.0,24.72,1111122 
LUMCON,ioos:station:LUMCON:102:1,2011-01-10T02:00:00Z,29.1870,-90.6093,-9999.0,25.1,1111122 
LUMCON,ioos:station:LUMCON:102:1,2011-01-10T03:00:00Z,29.1870,-90.6093,-9999.0,24.45,1111122 
LUMCON,ioos:station:LUMCON:102:1,2011-01-10T04:00:00Z,29.1870,-90.6093,-9999.0,24.01,1111122 
LUMCON,ioos:station:LUMCON:102:1,2011-01-10T05:00:00Z,29.1870,-90.6093,-9999.0,23.64,1111122 
LUMCON,ioos:station:LUMCON:102:1,2011-01-10T06:00:00Z,29.1870,-90.6093,-9999.0,23.38,1111122 
LUMCON,ioos:station:LUMCON:102:1,2011-01-10T07:00:00Z,29.1870,-90.6093,-9999.0,22.12,1111122 
LUMCON,ioos:station:LUMCON:102:1,2011-01-10T08:00:00Z,29.1870,-90.6093,-9999.0,21.27,1111122 
LUMCON,ioos:station:LUMCON:102:1,2011-01-10T09:00:00Z,29.1870,-90.6093,-9999.0,21.06,1111122 
LUMCON,ioos:station:LUMCON:102:1,2011-01-10T10:00:00Z,29.1870,-90.6093,-9999.0,21.28,1111122 
LUMCON,ioos:station:LUMCON:102:1,2011-01-10T11:00:00Z,29.1870,-90.6093,-9999.0,21.39,1111122 
LUMCON,ioos:station:LUMCON:102:1,2011-01-10T12:00:00Z,29.1870,-90.6093,-9999.0,21.52,1111122 
LUMCON,ioos:station:LUMCON:102:1,2011-01-10T13:00:00Z,29.1870,-90.6093,-9999.0,20.42,1111122 
LUMCON,ioos:station:LUMCON:102:1,2011-01-10T14:00:00Z,29.1870,-90.6093,-9999.0,20.08,1111122 
LUMCON,ioos:station:LUMCON:102:1,2011-01-10T15:00:00Z,29.1870,-90.6093,-9999.0,20.27,1111122 
LUMCON,ioos:station:LUMCON:102:1,2011-01-10T16:00:00Z,29.1870,-90.6093,-9999.0,20.68,1111122 
LUMCON,ioos:station:LUMCON:102:1,2011-01-10T17:00:00Z,29.1870,-90.6093,-9999.0,21.25,1111122 
LUMCON,ioos:station:LUMCON:102:1,2011-01-10T22:00:00Z,29.1870,-90.6093,-9999.0,21.63,1111122 
LUMCON,ioos:station:LUMCON:102:1,2011-01-10T23:00:00Z,29.1870,-90.6093,-9999.0,21.37,1111122 
LUMCON,ioos:station:LUMCON:102:1,2011-01-10T24:00:00Z,29.1870,-90.6093,-9999.0,21.78,1111122 
LUMCON,ioos:station:LUMCON:102:1,2011-01-11T01:00:00Z,29.1870,-90.6093,-9999.0,22.03,1111122 
LUMCON,ioos:station:LUMCON:102:1,2011-01-11T02:00:00Z,29.1870,-90.6093,-9999.0,22.74,1111122 
LUMCON,ioos:station:LUMCON:102:1,2011-01-11T03:00:00Z,29.1870,-90.6093,-9999.0,22.93,1111122 
LUMCON,ioos:station:LUMCON:102:1,2011-01-11T04:00:00Z,29.1870,-90.6093,-9999.0,22.7,1111122 
LUMCON,ioos:station:LUMCON:102:1,2011-01-11T05:00:00Z,29.1870,-90.6093,-9999.0,22.65,1111122 
LUMCON,ioos:station:LUMCON:102:1,2011-01-11T06:00:00Z,29.1870,-90.6093,-9999.0,22.47,1111122 
LUMCON,ioos:station:LUMCON:102:1,2011-01-11T07:00:00Z,29.1870,-90.6093,-9999.0,22.18,1111122 
LUMCON,ioos:station:LUMCON:102:1,2011-01-11T08:00:00Z,29.1870,-90.6093,-9999.0,21.82,1111122 
LUMCON,ioos:station:LUMCON:102:1,2011-01-11T09:00:00Z,29.1870,-90.6093,-9999.0,21.7,1111122 
LUMCON,ioos:station:LUMCON:102:1,2011-01-11T10:00:00Z,29.1870,-90.6093,-9999.0,21.68,1111122 
LUMCON,ioos:station:LUMCON:102:1,2011-01-11T11:00:00Z,29.1870,-90.6093,-9999.0,21.78,1111122 
LUMCON,ioos:station:LUMCON:102:1,2011-01-11T12:00:00Z,29.1870,-90.6093,-9999.0,21.89,1111122 
LUMCON,ioos:station:LUMCON:102:1,2011-01-11T13:00:00Z,29.1870,-90.6093,-9999.0,21.74,1111122 
LUMCON,ioos:station:LUMCON:102:1,2011-01-11T14:00:00Z,29.1870,-90.6093,-9999.0,20.66,1111122 
LUMCON,ioos:station:LUMCON:102:1,2011-01-11T15:00:00Z,29.1870,-90.6093,-9999.0,19.84,1111122 
LUMCON,ioos:station:LUMCON:102:1,2011-01-11T16:00:00Z,29.1870,-90.6093,-9999.0,19.6,1111122 
LUMCON,ioos:station:LUMCON:102:1,2011-01-11T17:00:00Z,29.1870,-90.6093,-9999.0,19.57,1111122 
LUMCON,ioos:station:LUMCON:102:1,2011-01-11T18:00:00Z,29.1870,-90.6093,-9999.0,19.68,1111122 